This is the latest recevied weather packets stored in our database for station/object KD4MBW. If no packets are shown the sender has not sent any weather packets the latest 10 day(s).
| Time | Temp. | Humidity | Pressure | Rain* | Wind** | Luminosity | Snow |
|---|---|---|---|---|---|---|---|
| 1788090759 | 23.33° C | 99% | 1018.6 hPa | 0 mm | - | 34 W/m² | - |
| 1788090455 | 23.33° C | 99% | 1018.5 hPa | 0 mm | - | 29 W/m² | - |
| 1788090150 | 23.33° C | 99% | 1018.3 hPa | 0 mm | - | 23 W/m² | - |
| 1788089845 | 23.33° C | 99% | 1018.5 hPa | 0 mm | - | 16 W/m² | - |
| 1788089540 | 23.33° C | 99% | 1018.3 hPa | 0 mm | - | 11 W/m² | - |
| 1788089236 | 23.33° C | 99% | 1018.4 hPa | 0 mm | - | 8 W/m² | - |
| 1788088932 | 23.33° C | 99% | 1018.4 hPa | 0 mm | - | 5 W/m² | - |
| 1788088628 | 23.33° C | 99% | 1018.1 hPa | 0 mm | - | 2 W/m² | - |
| 1788088323 | 23.33° C | 99% | 1018.2 hPa | 0 mm | - | 1 W/m² | - |
| 1788088017 | 23.33° C | 99% | 1018.2 hPa | 0 mm | - | 0 W/m² | - |
| 1788087714 | 23.33° C | 99% | 1018.2 hPa | 0 mm | - | 0 W/m² | - |
| 1788087413 | 23.33° C | 99% | 1017.9 hPa | 0 mm | - | 0 W/m² | - |
| 1788087109 | 23.33° C | 99% | 1018 hPa | 0 mm | - | 0 W/m² | - |
| 1788086806 | 23.33° C | 99% | 1017.7 hPa | 0 mm | - | 0 W/m² | - |
| 1788086502 | 23.33° C | 99% | 1017.8 hPa | 0 mm | - | 0 W/m² | - |
| 1788086201 | 23.33° C | 99% | 1017.6 hPa | 0 mm | - | 0 W/m² | - |
| 1788085897 | 23.33° C | 99% | 1017.7 hPa | 0 mm | - | 0 W/m² | - |
| 1788085595 | 23.33° C | 99% | 1017.5 hPa | 0 mm | - | 0 W/m² | - |
| 1788085291 | 23.89° C | 99% | 1017.6 hPa | 0 mm | - | 0 W/m² | - |
| 1788084986 | 23.89° C | 99% | 1017.4 hPa | 0 mm | - | 0 W/m² | - |
| 1788084681 | 23.89° C | 99% | 1017.4 hPa | 0 mm | - | 0 W/m² | - |
| 1788084375 | 23.89° C | 99% | 1017.5 hPa | 0 mm | - | 0 W/m² | - |
| 1788084069 | 23.89° C | 99% | 1017.6 hPa | 0 mm | - | 0 W/m² | - |
| 1788083768 | 23.89° C | 99% | 1017.7 hPa | 0 mm | - | 0 W/m² | - |
| 1788083465 | 23.89° C | 99% | 1017.6 hPa | 0 mm | - | 0 W/m² | - |
* Rain latest hour (hover to see other rain measurements)
** Current wind speed in m/s (hover to see current wind gust speed)